Regional Weather Roundup
Issued by NWS

Home | Current Version | Previous Version | Text Only | Print | Product List | Glossary On
Versions: 1 2 3 4 5 6 7 8 9 10 11 12 13 14 15 16 17 18 19 20 21 22 23 24 25 26 27 28 29 30 31 32 33 34 35 36 37 38 39 40 41 42 43 44 45 46 47 48 49 50
000
ASCA44 KEWX 270420
RWRMX

LATIN AMERICA AND CARIBBEAN REGIONAL WEATHER ROUNDUP
NATIONAL WEATHER SERVICE AUSTIN/SAN ANTONIO TX
1000 PM CST SUN FEB 26 2017

NOTE: "FAIR" INDICATED FEW OR NO CLOUDS BELOW 12,000 FEET WITH NO
SIGNIFICANT WEATHER AND/OR OBSTRUCTIONS TO VISIBILITY.

BAJA CALIFORNIA

CITY           SKY/WX    TMP DP  RH WIND       PRES   REMARKS
LA PAZ         CLEAR     64  50  59 CALM      29.98
MEXICALI       CLEAR     61  32  33 W10       29.91
S.J. DEL CABO  CLEAR     64  59  82 CALM      29.98R
TIJUANA        MOCLDY    54  46  76 CALM      30.03R

NORTHWESTERN MEXICO

CITY           SKY/WX    TMP DP  RH WIND       PRES   REMARKS
CULIACAN       CLEAR     66  57  72 CALM      29.94
HERMOSILLO     CLOUDY    66  36  32 CALM      29.97R
CD. JUAREZ     PTCLDY    57  27  30 W7        29.87
LOS MOCHIS     CLEAR     66  55  68 NW6       29.95R

NORTHEASTERN MEXICO

CITY           SKY/WX    TMP DP  RH WIND       PRES   REMARKS
CHIHUAHUA      CLEAR     63  12  14 SW9       30.01
MONCLOVA         N/A    N/A N/A N/A MISG        N/A
MONTERREY      CLEAR     68  55  64 E7        29.85R
REYNOSA          N/A    N/A N/A N/A MISG        N/A
SALTILLO       CLEAR     63  39  42 CALM      30.07R
TORREON        CLEAR     72  27  18 W3        29.94R
CD. VICTORIA     N/A    N/A N/A N/A MISG        N/A

WESTERN MEXICO

CITY           SKY/WX    TMP DP  RH WIND       PRES   REMARKS
AGUASCALIENTES CLEAR     64  12  13 CALM      30.20
COLIMA           N/A    N/A N/A N/A MISG        N/A
DEL BAJIO      CLEAR     64  30  27 N5        30.24R
GUADALAJARA    CLEAR     66  34  30 W5        30.15
MAZATLAN       CLEAR     64  63  94 CALM      29.96R
P. VALLARTA    CLEAR     70  68  94 CALM      29.95R
URUAPAN          N/A    N/A N/A N/A MISG        N/A
ZACATECAS      CLEAR     55  10  16 S9        30.23R

CENTRAL MEXICO

CITY           SKY/WX    TMP DP  RH WIND       PRES   REMARKS
CUERNAVACA       N/A    N/A N/A N/A MISG        N/A
MEXICO CITY    PTCLDY    66  32  28 SE13      30.28R
MORELIA        CLEAR     61  34  36 CALM      30.20
POZA RICA        N/A    N/A N/A N/A MISG        N/A
QUERETARO      CLEAR     63  28  27 SW5       30.24R
S. LUIS POTOSI CLEAR     64   3   9 SW6       30.14R
TAMPICO        PTCLDY    73  68  83 SE7       29.92R
TOLUCA         CLEAR     50  34  53 N3        30.39R

SOUTHERN MEXICO

CITY           SKY/WX    TMP DP  RH WIND       PRES   REMARKS
ACAPULCO       CLEAR     77  72  83 W7        29.91R
B. DE HUATULCO CLEAR     73  68  83 CALM      29.98
P. ESCONDIDO     N/A    N/A N/A N/A MISG        N/A
VERACRUZ       PTCLDY    73  70  88 N3        29.93R

YUCATAN PENINSULA

CITY           SKY/WX    TMP DP  RH WIND       PRES   REMARKS
CAMPECHE         N/A    N/A N/A N/A MISG        N/A
CANCUN         PTCLDY    77  66  69 E8        30.06R
CHETUMAL         N/A    N/A N/A N/A MISG        N/A
CD. DEL CARMEN PTCLDY    79  73  83 NE10      29.93
COZUMEL        PTCLDY    70  66  88 CALM      30.03R
MERIDA         CLEAR     81  63  54 E14       29.99R
MINATITLAN       N/A    N/A N/A N/A MISG        N/A
TAPACHULA      PTCLDY    79  72  78 CALM      29.91R
TUX. GUTIERREZ PTCLDY    75  64  69 CALM      29.96R
VILLAHERMOSA   CLEAR     73  70  88 NE5       29.93R

CENTRAL AMERICA

CITY           SKY/WX    TMP DP  RH WIND       PRES   REMARKS
MANAGUA        PTCLDY    81  68  65 E7        29.92R

CARIBBEAN

CITY           SKY/WX    TMP DP  RH WIND       PRES   REMARKS
CURACAO        PTCLDY    79  72  78 E12       29.97S
NASSAU         PTCLDY    77  68  73 NE7       30.19S
SAN JUAN       PTCLDY    79  72  78 NE12      30.09F
ST. CROIX      CLOUDY    75  72  88 NE5       30.07
ST. MAARTEN    PTCLDY    79  75  89 E12       30.06S
ST. THOMAS     PTCLDY    79  72  78 E10       30.07S

$$




USA.gov is the U.S. government's official web portal to all federal, state and local government web resources and services.